Regional Weather Roundup
Issued by NWS Newport/Morehead, NC

Current Version | Previous Version | Graphics & Text | Print | Product List | Glossary Off
Versions: 1 2 3 4 5 6 7 8 9 10 11 12 13 14 15 16 17 18 19 20 21 22 23 24 25 26 27 28 29 30 31 32 33 34 35 36 37 38 39 40 41 42 43 44 45 46 47 48 49 50
138 ASUS42 KMHX 241925 RWRMHX WEATHER ROUNDUP FOR EASTERN NORTH CAROLINA NATIONAL WEATHER SERVICE NEWPORT/MOREHEAD CITY NC 300 PM EDT FRI MAR 24 2017 NOTE: "FAIR" INDICATES FEW OR NO CLOUDS BELOW 12,000 FEET WITH NO SIGNIFICANT WEATHER AND/OR OBSTRUCTIONS TO VISIBILITY NCZ015>017-031-032-045>047-102-103-242000- NORTH COAST CITY SKY/WX TMP DP RH WIND PRES REMARKS EDENTON NOT AVBL ELIZABETH CITY SUNNY 67 42 40 S12G21 30.40F KITTY HAWK NOT AVBL MANTEO SUNNY 64 46 50 SW9 30.42F $$ NCZ045>047-081-094-103-104-242000- CENTRAL COAST CITY SKY/WX TMP DP RH WIND PRES REMARKS FRISCO MOSUNNY 66 51 58 SW9 30.46F $$ NCZ095-097-098-100-101-242000- SOUTHERN COAST CITY SKY/WX TMP DP RH WIND PRES REMARKS BEAUFORT SUNNY 69 49 48 S13 30.46F CEDAR ISLAND NOT AVBL JACKSONVILLE PTSUNNY 69 48 47 S16G23 30.44F PINEY ISLAND MOCLDY N/A N/A N/A SW20G28 30.44F WILMINGTON SUNNY 70 49 47 S13G20 30.44F $$ NCZ011>013-027>030-043-044-078>080-089-090>093-098-242000- COASTAL PLAIN CITY SKY/WX TMP DP RH WIND PRES REMARKS AHOSKIE NOT AVBL CLINTON SUNNY 71 46 40 SW8 30.42F ELIZABETHTOWN SUNNY 72 43 35 SW9 30.42F GOLDSBORO MOSUNNY 72 43 35 SW12 30.40F GREENVILLE MOSUNNY 72 45 37 W13G20 30.41F HAVELOCK PTSUNNY 70 46 42 SW12G23 30.45F KENANSVILLE SUNNY 72 41 33 W7G20 30.42F KINSTON MOSUNNY 72 43 35 SW10 30.42F NEW BERN PTSUNNY 70 45 40 S13 30.43F RICHLANDS PTSUNNY 72 47 40 S12 30.43F ROCKY MOUNT CLOUDY 68 47 46 SW16 30.41F WASHINGTON MOSUNNY 70 44 39 SW16 30.41F WHITEVILLE MOSUNNY 72 44 35 SW7G17 30.42F $$ AMZ130-135-150-152-154-156-158-170-250-252-270-ANZ085-086-088-633-658-670-242000- MARINE OBSERVATIONS STATION/POSITION TIME TEMP WIND PRES WAVE SWELL AIR SEA DIR/SP/G HT/PER HT/PER (UTC) (F) (DEG/KT/KT) (MB) (FT/S) (FT/S) CHESAPEAKE LIGHT NOT AVBL 64 E VA BEACH 1850 52 52 210/ 10/ 12 1029.9 3/ 9 2/ 9 DUCK 1900 61 47 260/ 7/ 10 1029.3 2 E DUCK 1900 51 N/A 3/ 6 OREGON INLET 1900 58 50 190/ 13/ 14 1030.3 13E OREGON INLT NOT AVBL HATTERAS CG 1900 62 53 190/ 4/ 8 1030.8 DIAMOND BUOY 1850 64 75 200/ 12/ 17 1031.6 4/10 3/10 CAPE LOOKOUT 1900 66 190/ 12/ 13 1031.2 BEAUFORT LAB 1900 64 51 200/ 11/ 12 1030.5 30 SE NEW RVR IN 1908 65 190/ 8/ 12 1031.6 30 SE NEW RVR IN 1913 69 N/A 3/ 6 2/11 27 SE WRIGHTSVLE 1908 65 63 150/ 6/ 10 1030.9 5 SE WRIGHTSVLE 1908 60 57 140/ 4/ 6 1031.2 225 S CAPE HAT 1850 64 73 80/ 14/ 16 1031.8 5/ 7 3/ 7 41 SE CHARLESTON 1850 69 72 150/ 12/ 14 1030.2 5/ 7 3/ 7 $$

USA.gov is the U.S. government's official web portal to all federal, state and local government web resources and services.